TimeMST,TemperatureF,Dew PointF,Humidity,Sea Level PressureIn,VisibilityMPH,Wind Direction,Wind SpeedMPH,Gust SpeedMPH,PrecipitationIn,Events,Conditions,WindDirDegrees,DateUTC
12:55 AM,28.9,12.9,51,29.88,10.0,Calm,Calm,-,N/A,,Clear,0,2012-11-25 07:55:00
1:55 AM,24.1,12.0,60,29.90,10.0,South,3.5,-,N/A,,Clear,180,2012-11-25 08:55:00
2:55 AM,19.9,10.9,68,29.93,10.0,Calm,Calm,-,N/A,,Clear,0,2012-11-25 09:55:00
3:55 AM,19.9,12.0,71,29.97,10.0,North,8.1,-,N/A,,Clear,350,2012-11-25 10:55:00
4:55 AM,17.1,10.9,77,30.01,10.0,Calm,Calm,-,N/A,,Clear,0,2012-11-25 11:55:00
5:55 AM,15.1,10.0,80,30.04,10.0,North,6.9,-,N/A,,Clear,350,2012-11-25 12:55:00
6:55 AM,15.1,9.0,77,30.06,10.0,ENE,8.1,-,N/A,,Clear,70,2012-11-25 13:55:00
7:55 AM,28.9,15.1,56,30.02,10.0,Calm,Calm,-,N/A,,Clear,0,2012-11-25 14:55:00
8:55 AM,39.9,18.0,41,29.96,10.0,SSE,10.4,-,N/A,,Clear,150,2012-11-25 15:55:00
9:55 AM,46.0,19.0,34,29.94,10.0,SSE,12.7,-,N/A,,Clear,150,2012-11-25 16:55:00
10:55 AM,50.0,19.0,29,29.90,10.0,SE,12.7,-,N/A,,Clear,140,2012-11-25 17:55:00
11:55 AM,52.0,16.0,24,29.85,10.0,SSE,13.8,20.7,N/A,,Clear,150,2012-11-25 18:55:00
12:55 PM,55.0,12.9,19,29.81,10.0,South,12.7,-,N/A,,Clear,170,2012-11-25 19:55:00
1:55 PM,54.0,12.0,19,29.81,10.0,South,13.8,20.7,N/A,,Clear,170,2012-11-25 20:55:00
2:55 PM,55.0,10.9,17,29.80,10.0,South,12.7,19.6,N/A,,Clear,170,2012-11-25 21:55:00
3:55 PM,52.0,10.9,19,29.82,10.0,SSE,9.2,-,N/A,,Clear,150,2012-11-25 22:55:00
4:55 PM,43.0,12.0,28,29.88,10.0,SSE,8.1,-,N/A,,Clear,160,2012-11-25 23:55:00
5:55 PM,35.1,12.9,40,29.95,10.0,South,6.9,-,N/A,,Clear,180,2012-11-26 00:55:00
6:55 PM,28.0,10.9,49,29.99,10.0,SSE,3.5,-,N/A,,Clear,150,2012-11-26 01:55:00
7:55 PM,25.0,12.9,60,29.97,10.0,Calm,Calm,-,N/A,,Clear,0,2012-11-26 02:55:00
8:55 PM,26.1,15.1,63,29.97,10.0,NE,6.9,-,N/A,,Clear,50,2012-11-26 03:55:00
9:55 PM,32.0,19.0,59,29.94,10.0,East,6.9,-,N/A,,Clear,100,2012-11-26 04:55:00
10:55 PM,30.9,23.0,72,29.94,10.0,SSE,6.9,-,N/A,,Clear,160,2012-11-26 05:55:00
11:55 PM,28.9,21.9,75,29.96,10.0,Calm,Calm,-,N/A,,Clear,0,2012-11-26 06:55:00